This is the latest recevied weather packets stored in our database for station/object KM4KBD. If no packets are shown the sender has not sent any weather packets the latest 10 day(s).
| Time | Temp. | Humidity | Pressure | Rain* | Wind** | Luminosity | Snow |
|---|---|---|---|---|---|---|---|
| 1777379211 | 16.11° C | 99% | 1020.3 hPa | 0 mm | - | 68 W/m² | - |
| 1777378906 | 16.11° C | 99% | 1020.7 hPa | 0 mm | - | 57 W/m² | - |
| 1777378602 | 16.11° C | 99% | 1020.4 hPa | 0 mm | - | 42 W/m² | - |
| 1777378299 | 16.11° C | 99% | 1020.2 hPa | 0 mm | - | 37 W/m² | - |
| 1777377697 | 16.11° C | 99% | 1019.8 hPa | 0 mm | - | 43 W/m² | - |
| 1777377393 | 16.11° C | 99% | 1019.9 hPa | 0 mm | - | 56 W/m² | - |
| 1777377090 | 16.11° C | 99% | 1019.8 hPa | 0 mm | - | 54 W/m² | - |
| 1777376179 | 15.56° C | 99% | 1019.7 hPa | 0 mm | - | 27 W/m² | - |
| 1777375875 | 15.56° C | 99% | 1019.8 hPa | 0 mm | - | 18 W/m² | - |
| 1777375569 | 15.56° C | 99% | 1019.5 hPa | 0 mm | - | 16 W/m² | - |
| 1777375265 | 15.56° C | 99% | 1019.6 hPa | 0 mm | - | 12 W/m² | - |
| 1777374961 | 15.56° C | 99% | 1019.4 hPa | 0 mm | - | 10 W/m² | - |
| 1777374657 | 15.56° C | 99% | 1019.2 hPa | 0 mm | - | 7 W/m² | - |
| 1777374353 | 15.56° C | 99% | 1019.1 hPa | 0 mm | - | 4 W/m² | - |
| 1777374050 | 15.56° C | 99% | 1019.3 hPa | 0 mm | - | 2 W/m² | - |
| 1777373445 | 15.56° C | 99% | 1019.1 hPa | 0 mm | - | 1 W/m² | - |
| 1777373145 | 15.56° C | 99% | 1019.2 hPa | 0 mm | - | 1 W/m² | - |
| 1777372535 | 15.56° C | 99% | 1019.3 hPa | 0 mm | - | 0 W/m² | - |
| 1777372234 | 15.56° C | 99% | 1019 hPa | 0 mm | - | 0 W/m² | - |
| 1777371933 | 15.56° C | 99% | 1019.1 hPa | 0 mm | - | 0 W/m² | - |
| 1777371630 | 15.56° C | 99% | 1019.3 hPa | 0 mm | - | 0 W/m² | - |
| 1777371327 | 15.56° C | 99% | 1019.2 hPa | 0 mm | - | 0 W/m² | - |
| 1777371023 | 15.56° C | 99% | 1018.9 hPa | 0 mm | - | 0 W/m² | - |
| 1777370719 | 15.56° C | 99% | 1019 hPa | 0 mm | - | 0 W/m² | - |
| 1777370415 | 15.56° C | 99% | 1018.9 hPa | 0 mm | - | 0 W/m² | - |
* Rain latest hour (hover to see other rain measurements)
** Current wind speed in m/s (hover to see current wind gust speed)